[Iaude] MPEC A76: 2016 AE165 [a=1.93,e=0.38,i=14.8,H=21.83]

mpec at marsden.cfa.harvard.edu mpec at marsden.cfa.harvard.edu
Mon Jan 8 09:12:11 EST 2024


M.P.E.C. 2024-A76                               Issued 2024 January 8, 14:10 UT

     The Minor Planet Electronic Circulars contain information on unusual
         minor planets, routine data on comets and natural satellites,
         and occasional editorial announcements.  They are published
    on behalf of Division F of the International Astronomical Union by the
          Minor Planet Center, Smithsonian Astrophysical Observatory,
                          Cambridge, MA 02138, U.S.A.
			  
             Prepared using the Tamkin Foundation Computer Network

                              MPC at CFA.HARVARD.EDU
            URL https://www.minorplanetcenter.net/    ISSN 1523-6714

                                   2016 AE165                                   


                           Revision to MPEC 2016-A163                           

Additional Observations:
     K16AG5E  C2024 01 03.46378 08 33 14.11 -05 59 43.9          21.1 GVEA076I52
     K16AG5E  C2024 01 03.46764 08 33 14.36 -05 59 41.0          20.9 GVEA076I52
     K16AG5E KC2024 01 06.58717808 36 46.138-05 14 21.62         21.0 GVEA076474
     K16AG5E KC2024 01 06.59070608 36 46.344-05 14 17.99         20.9 GVEA076474
     K16AG5E KC2024 01 06.59423508 36 46.591-05 14 14.78         21.0 GVEA076474
     K16AG5E KC2024 01 06.59776308 36 46.752-05 14 10.90         20.9 GVEA076474
     K16AG5E KC2024 01 06.60129108 36 46.966-05 14 07.15         21.1 GVEA076474

Observer details:
474 Mount John Observatory, Lake Tekapo.  Observers A. C. Gilmore, P. M.
    Kilmartin.  Measurer P. M. Kilmartin.  1.0-m f/7.7 Reflector + CCD.
I52 Steward Observatory, Mt. Lemmon Station.  Observer R. A. Kowalski.
    Measurers B. Gray, D. Rankin, F. C. Shelly.  1.0-m f/2.0 prime focus +
    CCD.

First and last observations above in comparison with prediction:
Residuals in seconds of arc (or two decimals in degrees), reference and Delta-T
240103 I52 0.07- 0.00-    240106 474 0.08- 0.00-    MPO782179   -0.02 days

Orbital elements:
2016 AE165                                               Earth MOID = 0.2122 AU
Epoch 2023 Sept. 13.0 TT = JDT 2460200.5                Veres                   
M 299.05645              (2000.0)            P               Q                  
n   0.36799321     Peri.   17.66586     -0.88950588     -0.42093471             
a   1.9286030      Node   136.03961     +0.38220377     -0.89862048             
e   0.3815311      Incl.   14.83624     +0.25039882     -0.12367377             
P   2.68           H   21.83          G   0.15           U   0                  
Residuals in seconds of arc
160111 F51  0.3+  0.1-    160119 F51  0.0   0.0     160317 F51  0.2+  0.0
160111 F51  0.3+  0.0     160202 807  0.2+  0.1+    160317 F51  0.2+  0.0
160111 F51  0.3+  0.0     160202 807  0.4-  0.3+    160317 F51  0.4+  0.0
160112 F51  0.1-  0.2-    160202 807  0.5-  0.7+    160402 H21  0.1-  0.7+
160112 F51  0.0   0.2-    160202 807  0.4-  0.9+    160402 H21  0.1+  0.5+
160112 F51  0.1-  0.1+    160211 F51  0.1-  0.3-    160402 H21  0.2+  0.4+
160112 F51  0.1+  0.1+    160211 F51  0.1-  0.1-    160414 H21  0.3-  0.0
160112 F51  0.1+  0.0     160211 F51  0.3-  0.3-    160414 H21  0.2-  0.3-
160112 F51  0.0   0.1+    160211 F51  0.0   0.0     160414 H21  0.0   0.1-
160112 F51  0.2+  0.2+    160212 I52  0.4+  0.3-    160415 H21  0.1+  0.3-
160112 F51  0.2+  0.0     160212 I52  0.4+  0.1+    160415 H21  0.2+  0.4-
160113 291  0.2+  0.0     160212 I52  0.7+  0.2-    160415 H21  0.2+  0.1-
160113 291  0.3-  0.5+    160212 I52  0.3+  0.5-    160416 H21  0.1+  0.0
160113 291  0.1-  0.2-    160220 711  0.3+  0.3+    160416 H21  0.2-  0.0
160115 291  1.0-  0.7-    160220 711  0.2-  0.4-    160416 H21  0.3-  0.6-
160115 291  0.0   0.5-    160220 711  0.4-  0.3-    240103 I52  0.0   0.1-
160118 F51  0.0   0.1+    160229 291  0.0   0.0     240103 I52  0.2+  0.1-
160118 F51  0.4-  0.2+    160229 291  0.2+  0.2+    240106 474  0.0   0.3-
160118 F51  0.0   0.3+    160229 291  0.6+  1.1+    240106 474  0.1-  0.1-
160118 F51  0.0   0.1+    160301 926  0.0   0.0     240106 474  0.5+  0.4-
160119 F51  0.0   0.0     160301 926  0.2+  0.4-    240106 474  0.3-  0.0
160119 F51  0.2+  0.3-    160301 926  0.4-  0.0     240106 474  0.2-  0.3+

Ephemeris:
2016 AE165               a,e,i = 1.93, 0.38, 15                  q = 1.1928
Date    TT    R. A. (2000) Decl.     Delta      r    Elong.  Phase     V
2023 12 09    08 02 15.4 -06 33 29   0.5676  1.4007   126.8    34.3    22.8
...
2023 12 24    08 21 08.4 -07 11 45   0.4448  1.3361   135.1    31.3    22.0
...
2024 01 01    08 30 26.8 -06 26 30   0.3872  1.3051   140.4    28.7    21.6
...
2024 01 07    08 37 13.9 -05 07 44   0.3479  1.2837   144.9    26.1    21.3
2024 01 08    08 38 21.4 -04 50 04   0.3417  1.2803   145.7    25.6    21.2
2024 01 09    08 39 28.9 -04 30 57   0.3357  1.2769   146.6    25.1    21.1
...
2024 01 15    08 46 18.6 -02 03 21   0.3016  1.2580   152.0    21.5    20.8
...
2024 01 23    08 56 02.7 +02 53 21   0.2636  1.2361   160.8    15.2    20.2
...
2024 02 07    09 18 50.3 +17 30 03   0.2202  1.2063   178.1     1.5    19.2

A. U. Tomatic                (C) Copyright 2024 MPC           M.P.E.C. 2024-A76





More information about the Iaude mailing list